TimeEST,TemperatureF,Dew PointF,Humidity,Sea Level PressureIn,VisibilityMPH,Wind Direction,Wind SpeedMPH,Gust SpeedMPH,PrecipitationIn,Events,Conditions,WindDirDegrees,DateUTC
12:15 AM,46.4,46.4,100,30.20,10.0,NE,9.2,-,N/A,,Overcast,40,2013-01-15 05:15:00
12:35 AM,46.4,46.4,100,30.23,10.0,North,12.7,18.4,N/A,,Overcast,10,2013-01-15 05:35:00
12:55 AM,46.4,46.4,100,30.23,7.0,NNE,13.8,23.0,N/A,,Drizzle,20,2013-01-15 05:55:00
1:15 AM,44.6,44.6,100,30.23,7.0,NNE,9.2,17.3,N/A,Rain,Light Rain,30,2013-01-15 06:15:00
1:35 AM,44.6,44.6,100,30.23,10.0,NE,10.4,18.4,N/A,,Overcast,40,2013-01-15 06:35:00
1:55 AM,44.6,44.6,100,30.23,5.0,NNE,10.4,-,0.01,Rain,Light Rain,30,2013-01-15 06:55:00
2:15 AM,44.6,44.6,100,30.23,5.0,NE,8.1,-,N/A,,Heavy Drizzle,40,2013-01-15 07:15:00
2:35 AM,44.6,44.6,100,30.23,7.0,NE,10.4,-,0.01,,Heavy Drizzle,40,2013-01-15 07:35:00
2:55 AM,42.8,42.8,100,30.24,10.0,NE,6.9,-,0.01,,Drizzle,40,2013-01-15 07:55:00
3:15 AM,42.8,42.8,100,30.23,7.0,NE,9.2,-,N/A,,Drizzle,40,2013-01-15 08:15:00
3:35 AM,42.8,42.8,100,30.23,5.0,NE,5.8,-,N/A,,Drizzle,40,2013-01-15 08:35:00
3:55 AM,42.8,42.8,100,30.23,5.0,NE,8.1,-,N/A,,Heavy Drizzle,40,2013-01-15 08:55:00
4:15 AM,42.8,42.8,100,30.21,4.0,East,12.7,-,0.01,,Heavy Drizzle,80,2013-01-15 09:15:00
4:35 AM,42.8,42.8,100,30.19,5.0,East,9.2,16.1,0.01,,Drizzle,80,2013-01-15 09:35:00
4:55 AM,42.8,42.8,100,30.19,7.0,East,9.2,-,0.01,,Overcast,90,2013-01-15 09:55:00
5:15 AM,42.8,42.8,100,30.18,7.0,East,8.1,-,N/A,,Light Drizzle,90,2013-01-15 10:15:00
5:35 AM,42.8,42.8,100,30.18,5.0,East,6.9,-,N/A,,Drizzle,90,2013-01-15 10:35:00
5:55 AM,42.8,42.8,100,30.18,4.0,ENE,10.4,-,N/A,,Drizzle,70,2013-01-15 10:55:00
6:15 AM,42.8,42.8,100,30.18,3.0,East,9.2,-,0.01,,Drizzle,80,2013-01-15 11:15:00
6:35 AM,42.8,42.8,100,30.19,4.0,East,8.1,-,0.01,,Overcast,80,2013-01-15 11:35:00
6:55 AM,42.8,42.8,100,30.19,4.0,East,8.1,-,0.01,,Light Drizzle,90,2013-01-15 11:55:00
7:15 AM,42.8,42.8,100,30.20,10.0,ENE,6.9,-,N/A,,Overcast,70,2013-01-15 12:15:00
7:35 AM,42.8,42.8,100,30.21,10.0,ENE,4.6,-,N/A,,Overcast,70,2013-01-15 12:35:00
7:55 AM,42.8,42.8,100,30.22,5.0,ENE,4.6,-,N/A,,Heavy Drizzle,70,2013-01-15 12:55:00
8:15 AM,42.8,42.8,100,30.23,3.0,ENE,5.8,-,0.01,,Heavy Drizzle,60,2013-01-15 13:15:00
8:35 AM,42.8,42.8,100,30.25,3.0,NNE,4.6,-,0.02,,Heavy Drizzle,30,2013-01-15 13:35:00
8:55 AM,42.8,42.8,100,30.26,4.0,North,5.8,-,0.03,Rain,Rain,10,2013-01-15 13:55:00
9:15 AM,42.8,42.8,100,30.26,4.0,NNE,5.8,-,0.01,Rain,Heavy Rain,20,2013-01-15 14:15:00
9:35 AM,42.8,42.8,100,30.27,10.0,North,9.2,-,0.01,,Overcast,10,2013-01-15 14:35:00
9:55 AM,42.8,42.8,100,30.26,10.0,NNE,8.1,-,0.01,,Overcast,30,2013-01-15 14:55:00
10:15 AM,42.8,42.8,100,30.26,10.0,NE,9.2,-,N/A,,Overcast,40,2013-01-15 15:15:00
10:35 AM,42.8,42.8,100,30.26,10.0,NE,6.9,-,N/A,,Overcast,40,2013-01-15 15:35:00
10:55 AM,42.8,42.8,100,30.26,10.0,North,5.8,-,N/A,,Overcast,10,2013-01-15 15:55:00
11:15 AM,41.0,41.0,100,30.25,7.0,North,6.9,-,N/A,,Overcast,10,2013-01-15 16:15:00
11:35 AM,41.0,41.0,100,30.25,7.0,NE,8.1,-,N/A,,Overcast,40,2013-01-15 16:35:00
11:55 AM,41.0,41.0,100,30.24,10.0,North,-9999.0,-,N/A,,Overcast,0,2013-01-15 16:55:00
12:15 PM,41.0,41.0,100,30.23,4.0,NE,6.9,-,N/A,,Overcast,40,2013-01-15 17:15:00
12:35 PM,41.0,41.0,100,30.23,5.0,NE,6.9,-,N/A,,Overcast,50,2013-01-15 17:35:00
12:55 PM,41.0,41.0,100,30.22,5.0,North,-9999.0,-,N/A,Rain,Light Rain,0,2013-01-15 17:55:00
1:15 PM,41.0,41.0,100,30.21,3.0,NE,5.8,-,N/A,,Overcast,50,2013-01-15 18:15:00
1:35 PM,41.0,41.0,100,30.20,2.5,NE,5.8,-,N/A,,Overcast,40,2013-01-15 18:35:00
1:55 PM,41.0,41.0,100,30.20,2.5,NE,8.1,-,N/A,,Overcast,40,2013-01-15 18:55:00
2:15 PM,41.0,41.0,100,30.20,2.5,NE,5.8,-,N/A,,Overcast,40,2013-01-15 19:15:00
2:35 PM,41.0,41.0,100,30.20,3.0,NE,6.9,-,N/A,Rain,Light Rain,50,2013-01-15 19:35:00
2:55 PM,41.0,41.0,100,30.19,2.5,ENE,10.4,-,N/A,Rain,Light Rain,70,2013-01-15 19:55:00
3:15 PM,41.0,41.0,100,30.20,3.0,NE,4.6,-,N/A,,Overcast,40,2013-01-15 20:15:00
3:35 PM,41.0,41.0,100,30.19,2.5,ENE,9.2,-,N/A,,Overcast,70,2013-01-15 20:35:00
3:55 PM,41.0,41.0,100,30.20,1.5,NE,4.6,-,N/A,,Overcast,50,2013-01-15 20:55:00
4:15 PM,41.0,41.0,100,30.20,1.8,NE,8.1,-,N/A,,Overcast,50,2013-01-15 21:15:00
4:35 PM,41.0,41.0,100,30.20,2.0,NE,4.6,-,N/A,,Light Drizzle,40,2013-01-15 21:35:00
4:55 PM,41.0,41.0,100,30.20,1.8,ENE,4.6,-,N/A,Rain,Light Rain,70,2013-01-15 21:55:00
5:15 PM,41.0,41.0,100,30.19,1.8,ENE,6.9,-,N/A,,Overcast,70,2013-01-15 22:15:00
5:35 PM,41.0,41.0,100,30.19,2.5,ENE,8.1,-,N/A,Rain,Light Rain,70,2013-01-15 22:35:00
5:55 PM,41.0,41.0,100,30.19,2.0,ENE,6.9,-,N/A,,Overcast,60,2013-01-15 22:55:00
6:15 PM,41.0,41.0,100,30.20,2.0,ENE,5.8,-,N/A,Rain,Rain,60,2013-01-15 23:15:00
6:35 PM,41.0,41.0,100,30.19,1.8,ENE,8.1,-,N/A,,Overcast,70,2013-01-15 23:35:00
6:55 PM,41.0,41.0,100,30.19,1.8,NE,8.1,-,N/A,,Light Drizzle,50,2013-01-15 23:55:00
7:15 PM,41.0,41.0,100,30.18,1.5,ENE,6.9,-,N/A,,Overcast,60,2013-01-16 00:15:00
7:35 PM,41.0,41.0,100,30.17,1.2,ENE,6.9,-,N/A,,Overcast,70,2013-01-16 00:35:00
7:55 PM,41.0,41.0,100,30.17,1.0,East,6.9,-,N/A,,Overcast,90,2013-01-16 00:55:00
8:15 PM,41.0,41.0,100,30.16,1.2,East,8.1,-,N/A,,Overcast,90,2013-01-16 01:15:00
8:35 PM,41.0,41.0,100,30.15,1.0,East,5.8,-,N/A,,Overcast,90,2013-01-16 01:35:00
8:55 PM,41.0,41.0,100,30.14,0.8,East,4.6,-,N/A,,Overcast,100,2013-01-16 01:55:00
9:15 PM,41.0,41.0,100,30.15,1.2,Calm,Calm,-,N/A,,Overcast,0,2013-01-16 02:15:00
9:35 PM,41.0,41.0,100,30.14,1.5,Calm,Calm,-,N/A,,Overcast,0,2013-01-16 02:35:00
9:55 PM,41.0,41.0,100,30.13,1.2,Calm,Calm,-,N/A,Rain,Light Rain,0,2013-01-16 02:55:00
10:15 PM,41.0,41.0,100,30.12,2.0,Calm,Calm,-,N/A,Rain,Rain,0,2013-01-16 03:15:00
10:35 PM,41.0,41.0,100,30.10,1.5,ENE,3.5,-,N/A,Rain,Light Rain,60,2013-01-16 03:35:00
10:55 PM,41.0,41.0,100,30.10,2.0,Calm,Calm,-,N/A,Rain,Light Rain,0,2013-01-16 03:55:00
11:15 PM,41.0,41.0,100,30.10,2.0,Calm,Calm,-,N/A,Rain,Light Rain,0,2013-01-16 04:15:00
11:55 PM,41.0,41.0,100,30.10,2.0,Calm,Calm,-,N/A,Rain,Light Rain,0,2013-01-16 04:55:00
11:58 PM,42.8,42.8,100,30.10,2.0,Calm,Calm,-,N/A,Rain,Light Rain,0,2013-01-16 04:58:00